Location: Buckland
(65.9785°N, 161.1281°W)
Time: 18:54:32
(UTC+00:00)

Vanguard 2 Rocket - Pass Details

Date: 27 November 2020
Orbit: 554 x 3326 km, 32.9° (Epoch: 14 January)

Event Time Altitude Azimuth Distance (km) Brightness Sun altitude
Rises 18:53:10 0° 204° (SSW) 7,310 11.7 -6.5°
Reaches altitude 10° 19:03:04 10° 181° (S) 6,101 11.7 -5.8°
Maximum altitude 19:08:53 12° 163° (SSE) 5,647 12.0 -5.3°
Drops below altitude 10° 19:14:14 10° 144° (SE) 5,514 12.7 -4.9°
Sets 19:21:48 0° 119° (ESE) 5,906 12.8 -4.4°
